NOAA 16 DEB

Satellite information

Favourite Embed

Satellite Type and Status

DEBRISIN ORBIT

Key statistics

Satellite NOAA 16 DEB at a glance.

Uptime

9053

Days in orbit

Revolutions

≈ 14.3

Per day

Orbit

SSO

Sun Synchronous Orbit

Inclination

98.7

Latest

Satellite identification and parameters

Extended collection of information and parameters for NOAA 16 DEB.

Object identification

Identified? True

Debris? True

Object name: NOAA 16 DEB

International designator: 2000-055KS

Object number (NORAD): 41413

Object ID (CCSDS): 41413

Country: UNITED STATES OF AMERICA (US)

Current information (Y/N): Y

RCS size: SMALL

Orbital parameters

Period: 100.858 minutes

Inclination: 98.6958 deg

SMA: 7177.418 km

Apoapsis: 815.202 km

Periapsis: 783.363 km

RAAN: 244.3578 deg

Eccentricy: 0.002218

Argument of periapsis: 96.1003 deg

Mean anomaly: 264.2705 deg

Mean motion: 14.27744306 rev/day

Mean motion (dot): 0.00003576 rev/day2

B* drag term: 0.001462 1/REarth

Two-line elements (TLE)

Creation date: July 2, 2025, 2:08 a.m.

Reference frame: TEME

Reference center: EARTH

Epoch: July 1, 2025, 10 p.m. UTC

TLE line 0: 0 NOAA 16 DEB

TLE line 1: 1 41413U 00055KS 25182.91705407 .00003576 00000-0 14620-2 0 9990

TLE line 2: 2 41413 98.6958 244.3578 0022180 96.1003 264.2705 14.27744306484184

Live tracking on map

Real-time ground track for satellite NOAA 16 DEB.

In-orbit conjunctions

A list of the most updated potential collisions computed for object NOAA 16 DEB.

Target Orbit TCA Probability of collision Miss distance Type
THOR BURNER 2 R/B SSO 2025-06-17 13:30:01 0.0001199427 32.0 (m) ROCKET BODY
SL-3 DEB LEO 2025-05-16 05:17:12 0.001137295 19.0 (m) DEBRIS
FENGYUN 1C DEB SSO 2024-11-15 12:12:41 0.0001125081 671.0 (m) DEBRIS
DMSP 5D-2 F12 DEB SSO 2024-11-15 02:27:23 0.0001722691 901.0 (m) DEBRIS
COSMOS 2263 LEO 2024-09-24 23:58:11 0.0002638922 309.0 (m) PAYLOAD

Associated space launch

The NOAA K, L and M POES satellites begin the fifth generation of improved environmental monitoring in support of NOAA missions. The instrument payload has significant improvements and additions/deletions. The instrument changes have effected the spacecraft subsystems and data formats.

NOAA 16 DEB was lifted into orbit during the mission ‘Titan II SLV | NOAA 16’, on board a Titan II SLV space rocket.

The launch took place on Sept. 21, 2000, 10:22 a.m. from Space Launch Complex 4W.

For more information about the launch, click the button.

Launch to space Titan II SLV | NOAA 16
Titan II SLV | NOAA 16

Agency: N/A

Status: Launch Successful

Launch date: Sept. 21, 2000, 10:22 a.m. UTC

Rocket: Titan II SLV

Launch pad: Space Launch Complex 4W

Location: Vandenberg SFB, CA, USA

...

Latest news about this satellite

There are no fresh news available about this satellite. Check back as we update our databases every day.


Newsletter sign-up

Weekly statistics, charts and insights to help you stay on top of the space industry.